Погода в Анцирабе

Мадагаскар     13°59′33″S   49°58′34″E
темп.,
°C
ветер,
м/с
пор.,
м/с
влажн.,
%
обл.,
%
осадки,
мм/ч
давл.,
гПа
погр.,
м
10 августа, ср
ср1000:00+17ююз299027 0.1 1021476
03:00+17ююз299335 0.4 1020390
06:00+18ю2118181 0.1 1020553
09:00+23ю485942 0.1 10211346
12:00+26юв495141 0.0 10181858
15:00+21ююв4109254 1.3 10181010
18:00+18ю3119442 1.4 1020858
21:00+20ю31171100 1.4 10211105
11 августа, чт
чт1100:00+20ю3106099 0.0 10201150
03:00+20ю31062100 0.0 10181107
06:00+20ю31063100 0.1 10191057
09:00+20ю31071100 0.2 10211021
12:00+22ююв4107088 0.8 10201290
15:00+20ююв398685 1.9 1019982
18:00+20ю31077100 0.8 1020983
21:00+20ю397592 0.9 1021947
12 августа, пт
пт1200:00+18ю2109799 1.2 1021703
03:00+17ююз2109746 2.2 1019581
06:00+17ююз2109780 0.5 1020461
09:00+19ю399599 1.5 1021611
12:00+20ююв389474 2.1 1020774
15:00+22ююв377958 3.8 10191076
18:00+18ююз289441 0.5 1019311
21:00+17ююз289881 0.9 1021267
13 августа, сб
сб1300:00+17юз259874 0.1 1020127
03:00+16юз269955 0.3 1018179
06:00+17юз1798100 0.3 1019216
09:00+19ююз279699 0.9 1020404
12:00+23ююв3569100 1.3 10191139
15:00+23ююв367099 1.8 10171023
18:00+19ю2897100 0.9 1019350
21:00+19ююз289896 2.6 1020412
14 августа, вс
вс1400:00+18ююз299754 0.7 1019356
03:00+18ююз2898100 1.1 1017342
06:00+18ююз169850 0.8 1018224
09:00+22ю378080 1.3 1019820
12:00+25юв366163 0.4 10171452
15:00+24юв356629 0.8 10161198
18:00+19ю13936 0.3 101762
21:00+18юз129932 0.8 101967